Rome Ciampino, Italy

10:10 PM CEST on September 25, 2016 (GMT +0200)
Ciampino

Weather History for LIRA - October, 2014

Change the Weather History Date:

Friday, October 17, 2014

  Actual Average Record
Temperature  
Mean Temperature 72 °F -  
Max Temperature 78 °F 68 °F 78 °F (2014)
Min Temperature 65 °F 52 °F 46 °F (2011)
Cooling Degree Days 6    
Growing Degree Days 22 (Base 50)    
Moisture  
Dew Point 64 °F    
Average Humidity 78    
Maximum Humidity 94    
Minimum Humidity 35    
Precipitation  
Precipitation 0.00 in - - ()
Sea Level Pressure  
Sea Level Pressure 30.08 in    
Wind  
Wind Speed 4 mph ()    
Max Wind Speed 8 mph    
Max Gust Speed -    
Visibility 6.4 miles    
Events Rain    
Averages and records for this station are not official NWS values.
T = Trace of Precipitation, MM = Missing Value Source: Averaged Metar Reports

Daily Weather History Graph

Daily Weather History Graph

Search for Another Location

Airport or City:

Trip Planner

Search our weather history database for the weather conditions in past years. The results will help you decide how hot, cold, wet, or windy it might be!

Date:

Astronomy

Oct. 17, 2014 Rise Set
Actual Time 7:23 AM CEST 6:25 PM CEST
Civil Twilight 6:55 AM CEST 6:53 PM CEST
Nautical Twilight 6:23 AM CEST 7:25 PM CEST
Astronomical Twilight 5:51 AM CEST 7:58 PM CEST
Moon 1:07 AM CEST (10/17) 3:07 PM CEST (10/17)
Length of Visible Light 11h 57m
Length of Day
11h 01m
Waning Crescent, 35% of the Moon is Illuminated
Oct 17
Waning Crescent
Oct 23
New
Oct 31
First Quarter
Nov 6
Full
Nov 14
Last Quarter

Hourly Weather History & Observations

Time (CEST) Temp. Dew Point Humidity Pressure Visibility Wind Dir Wind Speed Gust Speed Precip Events Conditions
12:15 AM 68.0 °F 66.2 °F 94% 30.06 in 5.6 mi SSW 3.5 mph - N/A Rain Rain
12:45 AM 69.8 °F 66.2 °F 88% 30.06 in 6.2 mi South 3.5 mph - N/A Rain Rain
1:15 AM 68.0 °F 64.4 °F 88% 30.06 in 6.2 mi ENE 3.5 mph - N/A   Mostly Cloudy
1:45 AM 68.0 °F 64.4 °F 88% 30.06 in 6.2 mi ENE 2.3 mph - N/A   Mostly Cloudy
2:00 AM 68 °F 65 °F 86% 30.07 in 6 mi ENE 2.3 mph - - Rain Light Rain
2:15 AM 68.0 °F 66.2 °F 94% 30.06 in 6.2 mi South 3.5 mph - N/A Rain Light Rain
2:45 AM 68.0 °F 66.2 °F 94% 30.06 in 6.2 mi South 4.6 mph - N/A   Scattered Clouds
3:15 AM 68.0 °F 64.4 °F 88% 30.06 in 6.2 mi South 4.6 mph - N/A   Scattered Clouds
3:45 AM 68.0 °F 64.4 °F 88% 30.06 in 6.2 mi SSE 5.8 mph - N/A   Scattered Clouds
4:15 AM 68.0 °F 64.4 °F 88% 30.06 in 6.2 mi SE 4.6 mph - N/A   Scattered Clouds
4:45 AM 68.0 °F 64.4 °F 88% 30.06 in 6.2 mi SSE 4.6 mph - N/A   Scattered Clouds
5:00 AM 68 °F 65 °F 87% 30.07 in 6 mi SSE 4.6 mph - -   Mostly Cloudy
5:15 AM 68.0 °F 64.4 °F 88% 30.06 in 6.2 mi SSE 5.8 mph - N/A   Scattered Clouds
5:45 AM 68.0 °F 64.4 °F 88% 30.06 in 6.2 mi SSE 5.8 mph - N/A   Partly Cloudy
6:15 AM 66.2 °F 62.6 °F 88% 30.06 in 6.2 mi SSE 5.8 mph - N/A   Partly Cloudy
6:45 AM 66.2 °F 62.6 °F 88% 30.04 in 6.2 mi SSE 5.8 mph - N/A   Partly Cloudy
7:00 AM - - N/A% - 6.2 mi Variable 3.5 mph - N/A   Scattered Clouds
7:15 AM 66.2 °F 62.6 °F 88% 30.04 in 6.2 mi SE 5.8 mph - N/A   Partly Cloudy
7:45 AM 66.2 °F 62.6 °F 88% 30.04 in 6.2 mi SE 6.9 mph - N/A   Partly Cloudy
8:00 AM 66 °F 63 °F 85% 30.05 in 6 mi SE 6.9 mph - -   Scattered Clouds
8:15 AM 68.0 °F 64.4 °F 88% 30.06 in 6.2 mi SE 4.6 mph - N/A   Scattered Clouds
8:45 AM 69.8 °F 66.2 °F 88% 30.06 in 6.2 mi SSE 2.3 mph - N/A   Scattered Clouds
9:15 AM 73.4 °F 66.2 °F 78% 30.06 in 6.2 mi South 1.2 mph - N/A   Scattered Clouds
9:45 AM 73.4 °F 64.4 °F 73% 30.09 in 6.2 mi South 3.5 mph - N/A   Scattered Clouds
10:15 AM 75.2 °F 66.2 °F 73% 30.09 in 6.2 mi South 6.9 mph - N/A   Scattered Clouds
10:45 AM 73.4 °F 64.4 °F 73% 30.09 in 6.2 mi South 8.1 mph - N/A   Scattered Clouds
11:00 AM 74 °F 65 °F 65% 30.09 in 7 mi South 8.1 mph - -   Mostly Cloudy
11:15 AM 73.4 °F 62.6 °F 69% 30.09 in 6.2 mi South 6.9 mph - N/A   Scattered Clouds
11:45 AM 75.2 °F 66.2 °F 73% 30.09 in 6.2 mi SSW 5.8 mph - N/A   Scattered Clouds
12:15 PM 75.2 °F 64.4 °F 69% 30.09 in 6.2 mi South 6.9 mph - N/A   Scattered Clouds
12:45 PM 75.2 °F 64.4 °F 69% 30.09 in 6.2 mi South 5.8 mph - N/A   Partly Cloudy
1:15 PM 77.0 °F 62.6 °F 61% 30.09 in 6.2 mi West 5.8 mph - N/A   Partly Cloudy
1:45 PM 78.8 °F 55.4 °F 44% 30.09 in 6.2 mi SW 8.1 mph - N/A   Partly Cloudy
2:00 PM 78 °F 55 °F 35% 30.10 in 9 mi SW 8.1 mph - -   Partly Cloudy
2:15 PM 77.0 °F 60.8 °F 57% 30.09 in 6.2 mi SW 6.9 mph - N/A   Partly Cloudy
2:45 PM 75.2 °F 62.6 °F 65% 30.06 in 6.2 mi SW 8.1 mph - N/A   Scattered Clouds
3:15 PM 75.2 °F 62.6 °F 65% 30.06 in 6.2 mi WSW 8.1 mph - N/A   Scattered Clouds
3:45 PM 73.4 °F 62.6 °F 69% 30.09 in 6.2 mi WSW 4.6 mph - N/A   Scattered Clouds
4:15 PM 73.4 °F 64.4 °F 73% 30.09 in 6.2 mi SW 4.6 mph - N/A   Scattered Clouds
4:45 PM 73.4 °F 64.4 °F 73% 30.09 in 6.2 mi SW 3.5 mph - N/A   Scattered Clouds
5:00 PM 73 °F 64 °F 66% 30.09 in 9 mi SW 3.5 mph - -   Partly Cloudy
5:15 PM 73.4 °F 64.4 °F 73% 30.09 in 6.2 mi SW 2.3 mph - N/A   Scattered Clouds
5:45 PM 73.4 °F 64.4 °F 73% 30.09 in 6.2 mi SW 2.3 mph - N/A   Scattered Clouds
6:15 PM 71.6 °F 64.4 °F 78% 30.09 in 6.2 mi SW 2.3 mph - N/A   Scattered Clouds
6:45 PM 71.6 °F 64.4 °F 78% 30.09 in 6.2 mi South 2.3 mph - N/A   Scattered Clouds
7:15 PM 71.6 °F 64.4 °F 78% 30.09 in 6.2 mi South 3.5 mph - N/A   Scattered Clouds
7:45 PM 69.8 °F 64.4 °F 83% 30.09 in 6.2 mi SE 2.3 mph - N/A   Scattered Clouds
8:00 PM 69 °F 65 °F 82% 30.11 in 9 mi SE 2.3 mph - -   Scattered Clouds
8:15 PM 69.8 °F 64.4 °F 83% 30.09 in 6.2 mi SSE 1.2 mph - N/A   Scattered Clouds
8:45 PM 68.0 °F 64.4 °F 88% 30.09 in 6.2 mi SE 3.5 mph - N/A   Scattered Clouds
9:15 PM 68.0 °F 60.8 °F 78% 30.12 in 6.2 mi ESE 3.5 mph - N/A   Scattered Clouds
9:45 PM 68.0 °F 60.8 °F 78% 30.12 in 6.2 mi SE 1.2 mph - N/A   Scattered Clouds
10:15 PM 68.0 °F 59.0 °F 73% 30.12 in 6.2 mi Calm Calm - N/A   Scattered Clouds
10:45 PM 68.0 °F 60.8 °F 78% 30.12 in 6.2 mi Calm Calm - N/A   Scattered Clouds
11:00 PM 68 °F 61 °F 71% 30.14 in 9 mi Calm Calm - -   Scattered Clouds
11:15 PM 68.0 °F 60.8 °F 78% 30.15 in 6.2 mi Calm Calm - N/A   Scattered Clouds
11:45 PM 68.0 °F 60.8 °F 78% 30.15 in 6.2 mi East 2.3 mph - N/A   Partly Cloudy